FW4125 Weather Reports


time (UTC)temp
C
wind
direction
speed
KPH
gust
KPH
rain 1hr
cm
rain 24hr
cm
rain mn
cm
humidity
%
barometer
mb
20260509161552 25 256 3.2 8.0 0.00 0.00 0.00 48
20260509160047 25 29 1.6 4.8 0.00 0.00 0.00 49
20260509154550 25 27 0.0 6.4 0.00 0.00 0.00 50
20260509153049 23 274 1.6 8.0 0.00 0.00 0.00 51
20260509151541 23 329 1.6 6.4 0.00 0.00 0.00 53
20260509150050 22 80 1.6 4.8 0.00 0.00 0.00 57
20260509144627 22 273 1.6 8.0 0.00 0.00 0.00 59
20260509143047 21 272 0.0 4.8 0.00 0.00 0.00 63
20260509141546 21 312 0.0 3.2 0.00 0.00 0.00 66
20260509140046 21 279 0.0 6.4 0.00 0.00 0.00 67
20260509134547 21 339 0.0 4.8 0.00 0.00 0.00 68
20260509133051 21 165 0.0 6.4 0.00 0.00 0.00 68
20260509131547 20 273 1.6 6.4 0.00 0.00 0.00 68
20260509130059 20 299 0.0 4.8 0.00 0.00 0.00 67
20260509124608 20 301 0.0 6.4 0.00 0.00 0.00 67
20260509123102 20 309 1.6 4.8 0.00 0.00 0.00 67
20260509121606 20 268 0.0 3.2 0.00 0.00 0.00 66
20260509120007 20 266 1.6 4.8 0.00 0.00 0.00 66
20260509114505 20 283 0.0 6.4 0.00 0.00 0.00 65
20260509113008 20 282 1.6 8.0 0.00 0.00 0.00 65
20260509111511 19 278 1.6 6.4 0.00 0.00 0.00 65
20260509110012 20 306 0.0 6.4 0.00 0.00 0.00 65
20260509104527 20 316 0.0 8.0 0.00 0.00 0.00 65
20260509103010 20 320 0.0 3.2 0.00 0.00 0.00 66
20260509101517 20 288 1.6 6.4 0.00 0.00 0.00 67
20260509100026 20 270 1.6 4.8 0.00 0.00 0.00 67
20260509094521 20 264 1.6 4.8 0.00 0.00 0.00 68
20260509093019 20 264 0.0 3.2 0.00 0.00 0.00 68
20260509091519 20 264 0.0 11.3 0.00 0.00 0.00 69
20260509090019 21 71 0.0 9.7 0.00 0.00 0.00 69
20260509084525 20 227 1.6 12.9 0.00 0.00 0.00 69
20260509083018 20 257 3.2 9.7 0.00 0.00 0.00 69
20260509081528 20 169 0.0 4.8 0.00 0.00 0.00 69
20260509080022 20 186 0.0 8.0 0.00 0.00 0.00 69
20260509074522 20 223 0.0 11.3 0.00 0.00 0.00 68
20260509073025 20 232 3.2 8.0 0.00 0.00 0.00 68
20260509071527 20 248 1.6 8.0 0.00 0.00 0.00 68
20260509070026 20 277 0.0 4.8 0.00 0.00 0.00 67
20260509064530 20 300 0.0 6.4 0.00 0.00 0.00 67
20260509063031 20 181 0.0 0.0 0.00 0.00 0.00 66
20260509061544 20 166 0.0 0.0 0.00 0.00 0.00 65
20260509060037 20 166 0.0 0.0 0.00 0.00 0.00 65
20260509054548 21 166 0.0 0.0 0.00 0.00 0.00 65
20260509053039 21 166 0.0 0.0 0.00 0.00 0.00 64
20260509051542 21 166 0.0 0.0 0.00 0.00 0.00 64
20260509050055 21 167 0.0 0.0 0.00 0.00 0.00 63
20260509044551 21 167 0.0 0.0 0.00 0.00 0.00 63
20260509043052 22 167 0.0 0.0 0.00 0.00 0.00 63
20260509041554 22 167 0.0 0.0 0.00 0.00 0.00 63
20260509040059 22 167 0.0 0.0 0.00 0.00 0.00 63
20260509034504 22 167 0.0 0.0 0.00 0.00 0.00 63
20260509033006 22 167 0.0 0.0 0.00 0.00 0.00 62
20260509031508 22 167 0.0 0.0 0.00 0.00 0.00 62
20260509030008 22 167 0.0 0.0 0.00 0.00 0.00 62
20260509024509 22 167 0.0 0.0 0.00 0.00 0.00 61
20260509023016 22 167 0.0 0.0 0.00 0.00 0.00 61
20260509021519 22 162 0.0 3.2 0.00 0.00 0.00 60
20260509020018 22 162 0.0 3.2 0.00 0.00 0.00 60
20260509014526 22 162 0.0 3.2 0.00 0.00 0.00 59
20260509013038 22 161 0.0 0.0 0.00 0.00 0.00 58
20260509011529 23 161 0.0 0.0 0.00 0.00 0.00 58
20260509010031 23 218 0.0 3.2 0.00 0.00 0.00 57
20260509004536 23 218 0.0 3.2 0.00 0.00 0.00 57
20260509003038 23 228 0.0 3.2 0.00 0.00 0.00 57
20260509001545 23 229 0.0 4.8 0.00 0.00 0.00 56
20260509000047 23 216 0.0 4.8 0.00 0.00 0.00 55
20260508234546 23 202 0.0 3.2 0.00 0.00 0.00 54
20260508233052 24 185 0.0 4.8 0.00 0.00 0.00 54
20260508231554 24 187 0.0 4.8 0.00 0.00 0.00 52
20260508230056 25 191 1.6 6.4 0.00 0.00 0.00 51
20260508224603 25 231 1.6 6.4 0.00 0.00 0.00 50
20260508223053 25 229 3.2 8.0 0.00 0.00 0.00 50
20260508221603 25 231 1.6 9.7 0.00 0.00 0.00 49
20260508220105 25 239 1.6 8.0 0.00 0.00 0.00 48
20260508214558 25 179 1.6 8.0 0.00 0.00 0.00 49
20260508213116 25 167 1.6 9.7 0.00 0.00 0.00 48
20260508211501 25 215 1.6 4.8 0.00 0.00 0.00 49
20260508210001 24 226 3.2 6.4 0.00 0.00 0.00 49
20260508204513 23 187 0.0 8.0 0.00 0.00 0.00 53
20260508203006 22 229 0.0 3.2 0.00 0.00 0.00 52
20260508201511 22 238 0.0 9.7 0.00 0.00 0.00 51
20260508200012 23 231 0.0 3.2 0.00 0.00 0.00 51
20260508194508 23 232 1.6 9.7 0.00 0.00 0.00 51
20260508193013 23 248 0.0 4.8 0.00 0.00 0.00 52
20260508191516 23 177 0.0 4.8 0.00 0.00 0.00 51
20260508190032 23 226 1.6 6.4 0.00 0.00 0.00 50
20260508184523 23 236 0.0 8.0 0.00 0.00 0.00 50
20260508183023 23 218 0.0 6.4 0.00 0.00 0.00 51
20260508181524 23 250 1.6 8.0 0.00 0.00 0.00 49
20260508180029 23 252 1.6 6.4 0.00 0.00 0.00 49
20260508174534 23 231 0.0 4.8 0.00 0.00 0.00 51
20260508173020 22 227 0.0 8.0 0.00 0.00 0.00 51
20260508171524 22 249 1.6 11.3 0.00 0.00 0.00 51
20260508170023 22 275 1.6 8.0 0.00 0.00 0.00 54
20260508164533 21 233 3.2 6.4 0.00 0.00 0.00 53
20260508163028 21 185 0.0 3.2 0.00 0.00 0.00 53